TimeCDT,TemperatureF,Dew PointF,Humidity,Sea Level PressureIn,VisibilityMPH,Wind Direction,Wind SpeedMPH,Gust SpeedMPH,PrecipitationIn,Events,Conditions,WindDirDegrees,DateUTC
12:15 AM,36.5,33.8,90,30.08,10.0,North,3.5,-,N/A,,Clear,350,2013-10-26 05:15:00
12:35 AM,35.6,33.1,91,30.08,10.0,North,4.6,-,N/A,,Clear,350,2013-10-26 05:35:00
12:55 AM,34.9,32.4,91,30.08,10.0,NNW,5.8,-,N/A,,Clear,340,2013-10-26 05:55:00
1:15 AM,35.1,32.9,92,30.08,10.0,NW,5.8,-,N/A,,Clear,320,2013-10-26 06:15:00
1:35 AM,34.9,32.9,92,30.08,10.0,WNW,5.8,-,N/A,,Clear,290,2013-10-26 06:35:00
1:55 AM,35.8,33.8,92,30.08,10.0,WNW,8.1,-,N/A,,Clear,290,2013-10-26 06:55:00
2:15 AM,36.7,34.9,93,30.09,10.0,WNW,6.9,-,N/A,,Clear,300,2013-10-26 07:15:00
2:35 AM,39.4,36.9,91,30.09,10.0,NNW,8.1,-,N/A,,Clear,330,2013-10-26 07:35:00
2:55 AM,44.2,39.9,85,30.10,10.0,North,11.5,-,N/A,,Clear,350,2013-10-26 07:55:00
3:15 AM,47.3,41.0,79,30.11,10.0,North,15.0,-,N/A,,Clear,360,2013-10-26 08:15:00
3:35 AM,48.2,40.5,75,30.11,10.0,North,15.0,-,N/A,,Clear,360,2013-10-26 08:35:00
3:55 AM,47.3,40.1,76,30.12,10.0,North,11.5,-,N/A,,Clear,360,2013-10-26 08:55:00
4:15 AM,45.7,39.2,78,30.13,10.0,North,9.2,-,N/A,,Clear,360,2013-10-26 09:15:00
4:35 AM,44.6,38.3,79,30.13,10.0,North,6.9,-,N/A,,Clear,360,2013-10-26 09:35:00
4:55 AM,43.3,37.6,80,30.14,10.0,North,6.9,-,N/A,,Clear,350,2013-10-26 09:55:00
5:15 AM,42.8,37.2,81,30.15,10.0,NNW,8.1,-,N/A,,Clear,330,2013-10-26 10:15:00
5:35 AM,39.2,35.4,86,30.16,10.0,NW,5.8,-,N/A,,Clear,320,2013-10-26 10:35:00
5:55 AM,39.0,35.2,86,30.17,10.0,NNW,5.8,-,N/A,,Clear,330,2013-10-26 10:55:00
6:15 AM,40.3,36.3,86,30.18,10.0,NNW,6.9,-,N/A,,Clear,330,2013-10-26 11:15:00
6:35 AM,35.8,32.9,89,30.19,10.0,WNW,6.9,-,N/A,,Clear,300,2013-10-26 11:35:00
6:55 AM,36.9,34.0,89,30.20,10.0,WNW,8.1,-,N/A,,Clear,300,2013-10-26 11:55:00
7:15 AM,36.0,33.3,90,30.20,10.0,NW,6.9,-,N/A,,Clear,310,2013-10-26 12:15:00
7:35 AM,34.2,31.8,91,30.21,10.0,WNW,5.8,-,N/A,,Clear,290,2013-10-26 12:35:00
7:55 AM,33.8,32.0,93,30.22,10.0,WNW,4.6,-,N/A,,Clear,300,2013-10-26 12:55:00
8:15 AM,32.5,30.9,94,30.23,10.0,NW,6.9,-,N/A,,Clear,320,2013-10-26 13:15:00
8:35 AM,33.6,31.6,92,30.24,10.0,NW,8.1,-,N/A,,Clear,320,2013-10-26 13:35:00
8:55 AM,36.7,33.8,89,30.25,10.0,NW,4.6,-,N/A,,Clear,310,2013-10-26 13:55:00
9:15 AM,39.9,36.1,86,30.26,10.0,NW,5.8,-,N/A,,Clear,310,2013-10-26 14:15:00
9:35 AM,42.6,36.1,78,30.27,10.0,NNW,6.9,-,N/A,,Clear,330,2013-10-26 14:35:00
9:55 AM,43.9,35.2,72,30.27,10.0,North,6.9,-,N/A,,Clear,350,2013-10-26 14:55:00
10:15 AM,45.1,32.0,60,30.27,10.0,North,11.5,17.3,N/A,,Clear,10,2013-10-26 15:15:00
10:35 AM,46.0,32.5,59,30.28,10.0,North,9.2,17.3,N/A,,Clear,10,2013-10-26 15:35:00
10:55 AM,46.9,32.7,58,30.29,10.0,North,13.8,-,N/A,,Clear,350,2013-10-26 15:55:00
11:15 AM,48.2,32.2,54,30.29,10.0,North,12.7,-,N/A,,Clear,350,2013-10-26 16:15:00
11:35 AM,48.9,32.0,52,30.29,10.0,North,9.2,12.7,N/A,,Clear,350,2013-10-26 16:35:00
11:55 AM,50.0,32.0,50,30.29,10.0,North,10.4,-,N/A,,Clear,10,2013-10-26 16:55:00
12:15 PM,51.8,30.7,45,30.29,10.0,North,12.7,20.7,N/A,,Clear,350,2013-10-26 17:15:00
12:35 PM,52.2,29.7,42,30.29,10.0,North,12.7,18.4,N/A,,Clear,360,2013-10-26 17:35:00
12:55 PM,53.2,29.5,40,30.29,10.0,North,11.5,-,N/A,,Clear,360,2013-10-26 17:55:00
1:15 PM,54.1,28.8,38,30.28,10.0,North,11.5,16.1,N/A,,Clear,360,2013-10-26 18:15:00
1:35 PM,54.9,28.8,37,30.27,10.0,NNE,6.9,-,N/A,,Clear,20,2013-10-26 18:35:00
1:55 PM,56.1,27.5,33,30.26,10.0,North,9.2,-,N/A,,Clear,360,2013-10-26 18:55:00
2:15 PM,56.3,25.3,30,30.25,10.0,North,13.8,19.6,N/A,,Clear,360,2013-10-26 19:15:00
2:35 PM,56.8,25.2,30,30.24,10.0,NNW,10.4,-,N/A,,Clear,340,2013-10-26 19:35:00
2:55 PM,57.6,25.7,29,30.24,10.0,NNW,13.8,17.3,N/A,,Clear,340,2013-10-26 19:55:00
3:15 PM,57.6,25.9,30,30.23,10.0,NNW,9.2,-,N/A,,Clear,330,2013-10-26 20:15:00
3:35 PM,58.1,26.1,29,30.22,10.0,NNW,8.1,-,N/A,,Clear,340,2013-10-26 20:35:00
3:55 PM,58.5,26.1,29,30.21,10.0,NNW,5.8,-,N/A,,Clear,340,2013-10-26 20:55:00
4:15 PM,58.5,26.4,29,30.21,10.0,North,4.6,-,N/A,,Clear,360,2013-10-26 21:15:00
4:35 PM,59.0,27.9,31,30.20,10.0,NW,10.4,-,N/A,,Clear,310,2013-10-26 21:35:00
4:55 PM,59.0,27.0,29,30.20,10.0,NW,9.2,-,N/A,,Clear,320,2013-10-26 21:55:00
5:15 PM,59.0,25.9,28,30.19,10.0,NNW,8.1,-,N/A,,Clear,330,2013-10-26 22:15:00
5:35 PM,58.1,27.9,32,30.19,10.0,NW,6.9,-,N/A,,Clear,320,2013-10-26 22:35:00
5:55 PM,57.2,27.9,33,30.18,10.0,NNW,3.5,-,N/A,,Clear,340,2013-10-26 22:55:00
6:15 PM,57.2,26.6,31,30.18,10.0,Calm,Calm,-,N/A,,Clear,0,2013-10-26 23:15:00
6:35 PM,55.2,26.4,33,30.18,10.0,Calm,Calm,-,N/A,,Clear,0,2013-10-26 23:35:00
6:55 PM,50.0,30.6,47,30.18,7.0,Calm,Calm,-,N/A,,Clear,0,2013-10-26 23:55:00
7:15 PM,49.6,27.9,43,30.17,10.0,Calm,Calm,-,N/A,,Clear,0,2013-10-27 00:15:00
7:35 PM,45.7,29.3,53,30.17,10.0,Calm,Calm,-,N/A,,Clear,0,2013-10-27 00:35:00
7:55 PM,43.0,31.1,63,30.17,10.0,Calm,Calm,-,N/A,,Clear,0,2013-10-27 00:55:00
8:15 PM,42.8,30.0,61,30.16,7.0,South,3.5,-,N/A,,Clear,170,2013-10-27 01:15:00
8:35 PM,41.5,30.4,65,30.16,7.0,SSE,3.5,-,N/A,,Clear,150,2013-10-27 01:35:00
8:55 PM,39.7,30.2,69,30.15,7.0,South,3.5,-,N/A,,Clear,180,2013-10-27 01:55:00
9:15 PM,39.2,30.2,70,30.15,7.0,Calm,Calm,-,N/A,,Clear,0,2013-10-27 02:15:00
9:35 PM,38.3,30.0,72,30.14,10.0,South,3.5,-,N/A,,Clear,190,2013-10-27 02:35:00
9:55 PM,36.7,29.5,75,30.15,7.0,SSE,3.5,-,N/A,,Clear,160,2013-10-27 02:55:00
10:15 PM,37.0,29.5,74,30.14,10.0,South,3.5,-,N/A,,Clear,180,2013-10-27 03:15:00
10:35 PM,36.5,29.8,77,30.14,10.0,Calm,Calm,-,N/A,,Clear,0,2013-10-27 03:35:00
10:55 PM,36.7,29.8,76,30.14,10.0,Calm,Calm,-,N/A,,Clear,0,2013-10-27 03:55:00
11:15 PM,32.9,29.1,86,30.13,5.0,ESE,3.5,-,N/A,,Clear,110,2013-10-27 04:15:00
11:35 PM,34.5,29.3,81,30.13,5.0,SE,4.6,-,N/A,,Haze,140,2013-10-27 04:35:00
11:55 PM,34.7,28.9,79,30.12,10.0,ESE,4.6,-,N/A,,Clear,120,2013-10-27 04:55:00